Ana Sayfa
METAR-TAF:

METAR-TAF

Havaalanları :

Coleman, Teksas, Amerika Birleşik Devletleri

Enlem: 31-50-28N, Boylam: 099-24-12W, yükseklik: 517 m

Güncel hava durumu gözlemi

Rapor saat 23:15 UTC de 20 dakika önce yapıldı.
Rüzgar güney/güneybatıdan 10 kt ve 14 kt'a kadar ani rüzgarlar
Sıcaklık 24°C
Nem 34%
Basınç 1010 hPa
Görüş mesafesi: 16.1 km
Açık gökyüzü

METAR: KCOM 082315Z AUTO 21010G14KT 10SM CLR 24/07 A2982 RMK AO2 T02360071

Saat: 16:35 (23:35 UTC)


TAF: eksik

4.000'den fazla havaalanı için hava durumu gözlemleri ve tahminleri (METAR ve TAF raporları).

Kullanılabilir istasyonlar harita üzerinde sarı ve kırmızı noktalarla gösterilir.

İstasyonun adını görmek için fareyi noktanın üzerinde gezdirin.

Sonrasında hava gözlem ve tahminlerini görmek için tıklayın.

Haritayı değiştirmek için: yaklaştırmak için siyah artı işaretli yeşil düğmeye ve uzaklaştırmak için de eksi işaretli düğmeye hızla tıklayın; bitişik haritalar için yeşil okları kullanın.


METAR-TAF: